This is the latest recevied weather packets stored in our database for station/object KC5EZZ-2. If no packets are shown the sender has not sent any weather packets the latest 10 day(s).
| Time | Temp. | Humidity | Pressure | Rain* | Wind** | Luminosity | Snow |
|---|---|---|---|---|---|---|---|
| 1778005473 | 32.22° C | - | - | 0 mm | 4.02 m/s, 290° | - | - |
| 1778005173 | 32.78° C | - | - | 0 mm | 4.47 m/s, 270° | - | - |
| 1778004870 | 32.78° C | - | - | 0 mm | 4.02 m/s, 253° | - | - |
| 1778004571 | 32.78° C | - | - | 0 mm | 3.58 m/s, 242° | - | - |
| 1778004271 | 32.22° C | - | - | 0 mm | 3.13 m/s, 239° | - | - |
| 1778003969 | 32.78° C | - | - | 0 mm | 4.02 m/s, 249° | - | - |
| 1778003669 | 32.78° C | - | - | 0 mm | 4.92 m/s, 285° | - | - |
| 1778003369 | 32.78° C | - | - | 0 mm | 2.68 m/s, 271° | - | - |
| 1778003066 | 32.22° C | - | - | 0 mm | 3.13 m/s, 224° | - | - |
| 1778002767 | 32.22° C | - | - | 0 mm | 4.47 m/s, 248° | - | - |
| 1778002467 | 32.22° C | - | - | 0 mm | 3.13 m/s, 281° | - | - |
| 1778002164 | 32.22° C | - | - | 0 mm | 3.13 m/s, 243° | - | - |
| 1778001865 | 32.22° C | - | - | 0 mm | 1.34 m/s, 245° | - | - |
| 1778001565 | 31.67° C | - | - | 0 mm | 2.68 m/s, 203° | - | - |
| 1778001263 | 31.67° C | - | - | 0 mm | 2.24 m/s, 165° | - | - |
| 1778000963 | 31.11° C | - | - | 0 mm | 2.68 m/s, 191° | - | - |
| 1778000663 | 30.56° C | - | - | 0 mm | 2.68 m/s, 232° | - | - |
| 1778000361 | 30.56° C | - | - | 0 mm | 2.24 m/s, 253° | - | - |
| 1778000134 | 29.44° C | - | - | 0 mm | 3.58 m/s, 236° | - | - |
| 1778000061 | 29.44° C | - | - | 0 mm | 3.58 m/s, 236° | - | - |
| 1777999762 | 28.89° C | - | - | 0 mm | 3.58 m/s, 211° | - | - |
| 1777999519 | 28.89° C | - | - | 0 mm | 4.47 m/s, 203° | - | - |
| 1777999459 | 28.89° C | - | - | 0 mm | 4.47 m/s, 203° | - | - |
| 1777999159 | 28.33° C | - | - | 0 mm | 3.58 m/s, 222° | - | - |
| 1777998860 | 28.33° C | - | - | 0 mm | 5.36 m/s, 232° | - | - |
* Rain latest hour (hover to see other rain measurements)
** Current wind speed in m/s (hover to see current wind gust speed)